Weather History for KLVN - July, 2014

Change the Weather History Date:

Thursday, July 17, 2014

  Actual Average Record
Temperature  
Mean Temperature 63 °F -  
Max Temperature 75 °F 84 °F 95 °F (1964)
Min Temperature 51 °F 62 °F 50 °F (1984)
Degree Days  
Heating Degree Days 2    
Growing Degree Days 13 (Base 50)    
Moisture  
Dew Point 54 °F    
Average Humidity 72    
Maximum Humidity 100    
Minimum Humidity 47    
Precipitation  
Precipitation 0.00 in - - ()
Sea Level Pressure  
Sea Level Pressure 30.04 in    
Wind  
Wind Speed 2 mph (SSW)    
Max Wind Speed 8 mph    
Max Gust Speed -    
Visibility 10 miles    
Events      
Averages and records for this station are not official NWS values.
T = Trace of Precipitation, MM = Missing Value Source: NWS Daily Summary

Daily Weather History Graph

Daily Weather History Graph

Search for Another Location

Airport or City:

Trip Planner

Search our weather history database for the weather conditions in past years. The results will help you decide how hot, cold, wet, or windy it might be!

Date:

Astronomy

Jul. 17, 2014 Rise Set
Actual Time 5:43 AM CDT 8:53 PM CDT
Civil Twilight 5:08 AM CDT 9:29 PM CDT
Nautical Twilight 4:22 AM CDT 10:14 PM CDT
Astronomical Twilight 3:27 AM CDT 11:09 PM CDT
Moon 11:55 PM CDT (7/17) 12:12 PM CDT (7/17)
Length of Visible Light 16h 20m
Length of Day
15h 10m
Waning Gibbous, 65% of the Moon is Illuminated
Jul 17
Waning Gibbous
Jul 18
Last Quarter
Jul 26
New
Aug 3
First Quarter
Aug 10
Full

Hourly Weather History & Observations

Time (CDT) Temp. Dew Point Humidity Pressure Visibility Wind Dir Wind Speed Gust Speed Precip Events Conditions
12:13 AM 55.4 °F 53.6 °F 94% 30.03 in 10.0 mi Calm Calm - N/A   Clear
12:53 AM 53.6 °F 53.6 °F 100% 30.03 in 10.0 mi Calm Calm - N/A   Clear
1:13 AM 53.6 °F 51.8 °F 94% 30.03 in 10.0 mi Calm Calm - N/A   Clear
1:34 AM 53.6 °F 53.6 °F 100% 30.03 in 10.0 mi Calm Calm - N/A   Clear
1:53 AM 53.6 °F 51.8 °F 94% 30.03 in 10.0 mi Calm Calm - N/A   Clear
2:14 AM 53.6 °F 51.8 °F 94% 30.03 in 10.0 mi Calm Calm - N/A   Clear
2:33 AM 53.6 °F 51.8 °F 94% 30.03 in 10.0 mi Calm Calm - N/A   Clear
2:53 AM 53.6 °F 51.8 °F 94% 30.03 in 10.0 mi Calm Calm - N/A   Clear
3:14 AM 51.8 °F 51.8 °F 100% 30.03 in 10.0 mi Calm Calm - N/A   Clear
3:33 AM 53.6 °F 51.8 °F 94% 30.03 in 10.0 mi Calm Calm - N/A   Clear
3:53 AM 55.4 °F 51.8 °F 88% 30.03 in 10.0 mi Calm Calm - N/A   Clear
4:14 AM 55.4 °F 51.8 °F 88% 30.04 in 10.0 mi Calm Calm - N/A   Clear
4:33 AM 55.4 °F 51.8 °F 88% 30.04 in 10.0 mi Calm Calm - N/A   Clear
4:53 AM 55.4 °F 51.8 °F 88% 30.04 in 10.0 mi Calm Calm - N/A   Clear
5:33 AM 55.4 °F 51.8 °F 88% 30.04 in 10.0 mi Calm Calm - N/A   Clear
5:53 AM 53.6 °F 51.8 °F 94% 30.05 in 10.0 mi Calm Calm - N/A   Clear
6:14 AM 55.4 °F 51.8 °F 88% 30.05 in 10.0 mi Calm Calm - N/A   Clear
6:33 AM 55.4 °F 51.8 °F 88% 30.06 in 10.0 mi Calm Calm - N/A   Clear
6:54 AM 55.4 °F 51.8 °F 88% 30.05 in 10.0 mi Calm Calm - N/A   Clear
7:13 AM 55.4 °F 53.6 °F 94% 30.05 in 10.0 mi Calm Calm - N/A   Clear
7:33 AM 57.2 °F 53.6 °F 88% 30.06 in 10.0 mi Calm Calm - N/A   Clear
7:54 AM 59.0 °F 55.4 °F 88% 30.06 in 10.0 mi Calm Calm - N/A   Mostly Cloudy
8:13 AM 60.8 °F 55.4 °F 82% 30.06 in 10.0 mi Calm Calm - N/A   Overcast
8:33 AM 60.8 °F 55.4 °F 82% 30.06 in 10.0 mi Calm Calm - N/A   Mostly Cloudy
8:54 AM 62.6 °F 55.4 °F 77% 30.06 in 10.0 mi South 3.5 mph - N/A   Scattered Clouds
9:13 AM 64.4 °F 57.2 °F 77% 30.06 in 10.0 mi South 4.6 mph - N/A   Clear
9:33 AM 66.2 °F 57.2 °F 73% 30.06 in 10.0 mi Calm Calm - N/A   Clear
9:54 AM 68.0 °F 55.4 °F 64% 30.06 in 10.0 mi SW 3.5 mph - N/A   Clear
10:13 AM 69.8 °F 55.4 °F 60% 30.05 in 10.0 mi South 4.6 mph - N/A   Clear
10:33 AM 69.8 °F 55.4 °F 60% 30.05 in 10.0 mi Calm Calm - N/A   Clear
10:54 AM 71.6 °F 57.2 °F 60% 30.05 in 10.0 mi South 4.6 mph - N/A   Clear
11:13 AM 71.6 °F 57.2 °F 60% 30.05 in 10.0 mi SSW 5.8 mph - N/A   Clear
11:34 AM 71.6 °F 57.2 °F 60% 30.05 in 10.0 mi SSW 6.9 mph - N/A   Clear
12:13 PM 73.4 °F 55.4 °F 53% 30.05 in 10.0 mi South 5.8 mph - N/A   Clear
12:33 PM 73.4 °F 55.4 °F 53% 30.04 in 10.0 mi SSW 6.9 mph - N/A   Clear
12:53 PM 73.4 °F 55.4 °F 53% 30.04 in 10.0 mi SW 4.6 mph - N/A   Clear
1:13 PM 73.4 °F 55.4 °F 53% 30.04 in 10.0 mi West 3.5 mph - N/A   Clear
1:33 PM 73.4 °F 55.4 °F 53% 30.04 in 10.0 mi SW 5.8 mph - N/A   Scattered Clouds
1:53 PM 75.2 °F 55.4 °F 50% 30.04 in 10.0 mi SW 4.6 mph - N/A   Scattered Clouds
2:13 PM 75.2 °F 53.6 °F 47% 30.04 in 10.0 mi South 8.1 mph - N/A   Scattered Clouds
2:33 PM 73.4 °F 53.6 °F 50% 30.04 in 10.0 mi WSW 3.5 mph - N/A   Scattered Clouds
2:54 PM 73.4 °F 53.6 °F 50% 30.04 in 10.0 mi SSW 6.9 mph - N/A   Mostly Cloudy
3:13 PM 75.2 °F 53.6 °F 47% 30.03 in 10.0 mi WSW 5.8 mph - N/A   Scattered Clouds
3:33 PM 75.2 °F 53.6 °F 47% 30.04 in 10.0 mi SW 6.9 mph - N/A   Scattered Clouds
3:54 PM 73.4 °F 53.6 °F 50% 30.03 in 10.0 mi Calm Calm - N/A   Mostly Cloudy
4:13 PM 75.2 °F 53.6 °F 47% 30.03 in 7.0 mi South 5.8 mph - N/A   Scattered Clouds
4:34 PM 75.2 °F 55.4 °F 50% 30.02 in 10.0 mi South 8.1 mph - N/A   Scattered Clouds
4:53 PM 75.2 °F 53.6 °F 47% 30.02 in 7.0 mi SSW 5.8 mph - N/A   Clear
5:13 PM 73.4 °F 53.6 °F 50% 30.02 in 10.0 mi South 6.9 mph - N/A   Clear
5:33 PM 75.2 °F 53.6 °F 47% 30.02 in 10.0 mi SSW 3.5 mph - N/A   Scattered Clouds
5:53 PM 75.2 °F 53.6 °F 47% 30.02 in 10.0 mi SW 4.6 mph - N/A   Scattered Clouds
6:14 PM 73.4 °F 55.4 °F 53% 30.01 in 10.0 mi South 5.8 mph - N/A   Scattered Clouds
6:53 PM 73.4 °F 53.6 °F 50% 30.01 in 10.0 mi SSW 4.6 mph - N/A   Clear
7:13 PM 73.4 °F 53.6 °F 50% 30.02 in 10.0 mi South 4.6 mph - N/A   Clear
7:33 PM 71.6 °F 55.4 °F 57% 30.02 in 10.0 mi Calm Calm - N/A   Clear
7:53 PM 69.8 °F 57.2 °F 64% 30.02 in 7.0 mi Calm Calm - N/A   Clear
8:13 PM 68.0 °F 57.2 °F 68% 30.02 in 4.0 mi Calm Calm - N/A   Haze
8:34 PM 66.2 °F 57.2 °F 73% 30.02 in 10.0 mi South 3.5 mph - N/A   Clear
8:53 PM 66.2 °F 55.4 °F 68% 30.02 in 10.0 mi Calm Calm - N/A   Clear
9:13 PM 64.4 °F 55.4 °F 73% 30.02 in 10.0 mi South 3.5 mph - N/A   Clear
9:33 PM 62.6 °F 55.4 °F 77% 30.02 in 10.0 mi Calm Calm - N/A   Clear
9:53 PM 62.6 °F 55.4 °F 77% 30.02 in 10.0 mi South 3.5 mph - N/A   Clear
10:13 PM 62.6 °F 55.4 °F 77% 30.02 in 10.0 mi South 3.5 mph - N/A   Clear
10:33 PM 62.6 °F 55.4 °F 77% 30.03 in 10.0 mi South 3.5 mph - N/A   Clear
10:53 PM 60.8 °F 55.4 °F 82% 30.03 in 10.0 mi South 3.5 mph - N/A   Clear
11:13 PM 60.8 °F 55.4 °F 82% 30.03 in 10.0 mi South 3.5 mph - N/A   Clear
11:33 PM 60.8 °F 55.4 °F 82% 30.03 in 10.0 mi Calm Calm - N/A   Clear
11:53 PM 57.2 °F 55.4 °F 94% 30.04 in 10.0 mi Calm Calm - N/A   Clear